Enid, OK

4:28 AM CST on February 21, 2018 (GMT -0600)
Enid Woodring Municipal

Weather History for KWDG - August, 2014

Change the Weather History Date:

Saturday, August 30, 2014

  Actual Average Record
Temperature  
Mean Temperature 79 °F -  
Max Temperature 96 °F 89 °F 107 °F (2011)
Min Temperature 62 °F 68 °F 55 °F (2006)
Cooling Degree Days 14    
Growing Degree Days 29 (Base 50)    
Moisture  
Dew Point 62 °F    
Average Humidity 70    
Maximum Humidity 100    
Minimum Humidity 25    
Precipitation  
Precipitation 0.00 in - - ()
Sea Level Pressure  
Sea Level Pressure 29.91 in    
Wind  
Wind Speed 4 mph (SE)    
Max Wind Speed 12 mph    
Max Gust Speed -    
Visibility 9 miles    
Events Fog    
Averages and records for this station are not official NWS values.
T = Trace of Precipitation, MM = Missing Value Source: NWS Daily Summary

Daily Weather History Graph

Daily Weather History Graph

Search for Another Location

Airport or City:

Trip Planner

Search our weather history database for the weather conditions in past years. The results will help you decide how hot, cold, wet, or windy it might be!

Date:

Astronomy

Aug. 30, 2014 Rise Set
Actual Time 7:01 AM CDT 8:01 PM CDT
Civil Twilight 6:34 AM CDT 8:28 PM CDT
Nautical Twilight 6:03 AM CDT 8:59 PM CDT
Astronomical Twilight 5:30 AM CDT 9:31 PM CDT
Moon 11:40 AM CDT (8/30) 10:46 PM CDT (8/30)
Length of Visible Light 13h 53m
Length of Day
13h 00m
Waxing Crescent, 23% of the Moon is Illuminated
Aug 30
Waxing Crescent
Sep 2
First Quarter
Sep 8
Full
Sep 15
Last Quarter
Sep 24
New

Hourly Weather History & Observations

Time (CDT) Temp. Heat Index Dew Point Humidity Pressure Visibility Wind Dir Wind Speed Gust Speed Precip Events Conditions
12:15 AM 69.8 °F - 64.4 °F 83% 29.91 in 10.0 mi South 4.6 mph - N/A   Clear
12:35 AM 69.8 °F - 64.4 °F 83% 29.91 in 10.0 mi SSE 5.8 mph - N/A   Clear
12:55 AM 68.0 °F - 64.4 °F 88% 29.91 in 10.0 mi SSE 5.8 mph - N/A   Clear
1:15 AM 68.0 °F - 64.4 °F 88% 29.91 in 10.0 mi SSE 5.8 mph - N/A   Clear
1:35 AM 68.0 °F - 64.4 °F 88% 29.91 in 10.0 mi South 3.5 mph - N/A   Clear
1:55 AM 68.0 °F - 64.4 °F 88% 29.91 in 10.0 mi Calm Calm - N/A   Clear
2:15 AM 68.0 °F - 64.4 °F 88% 29.91 in 10.0 mi Calm Calm - N/A   Clear
2:35 AM 66.2 °F - 64.4 °F 94% 29.91 in 10.0 mi South 3.5 mph - N/A   Clear
2:55 AM 66.2 °F - 64.4 °F 94% 29.91 in 10.0 mi South 3.5 mph - N/A   Clear
3:15 AM 66.2 °F - 64.4 °F 94% 29.92 in 10.0 mi South 3.5 mph - N/A   Clear
3:35 AM 66.2 °F - 64.4 °F 94% 29.92 in 10.0 mi SSE 4.6 mph - N/A   Clear
3:55 AM 64.4 °F - 62.6 °F 94% 29.92 in 7.0 mi South 3.5 mph - N/A   Clear
4:15 AM 64.4 °F - 64.4 °F 100% 29.92 in 7.0 mi South 5.8 mph - N/A   Clear
4:35 AM 64.4 °F - 62.6 °F 94% 29.92 in 5.0 mi South 5.8 mph - N/A   Clear
4:55 AM 64.4 °F - 62.6 °F 94% 29.92 in 5.0 mi SSW 3.5 mph - N/A   Clear
5:35 AM 62.6 °F - 62.6 °F 100% 29.92 in 2.5 mi Calm Calm - N/A   Clear
5:55 AM 62.6 °F - 62.6 °F 100% 29.92 in 0.5 mi Calm Calm - N/A Fog Fog
6:15 AM 64.4 °F - 64.4 °F 100% 29.93 in 7.0 mi Calm Calm - N/A   Scattered Clouds
6:50 AM 62.6 °F - 62.6 °F 100% 29.93 in 5.0 mi SSE 4.6 mph - N/A   Scattered Clouds
7:50 AM 66.2 °F - 66.2 °F 100% 29.94 in 10.0 mi Calm Calm - N/A   Scattered Clouds
8:50 AM 73.4 °F - 64.4 °F 73% 29.94 in 10.0 mi Calm Calm - N/A   Scattered Clouds
9:50 AM 80.6 °F 81.8 °F 62.6 °F 54% 29.96 in 10.0 mi North 6.9 mph - N/A   Scattered Clouds
10:50 AM 86.0 °F 86.1 °F 60.8 °F 43% 29.96 in 10.0 mi NNW 5.8 mph - N/A   Scattered Clouds
11:55 AM 91.4 °F 90.7 °F 59.0 °F 34% 29.95 in 10.0 mi North 5.8 mph - N/A   Partly Cloudy
12:50 PM 93.2 °F 91.9 °F 57.2 °F 30% 29.94 in 10.0 mi Calm Calm - N/A   Partly Cloudy
1:50 PM 95.0 °F 93.7 °F 57.2 °F 28% 29.94 in 10.0 mi North 11.5 mph - N/A   Partly Cloudy
2:50 PM 96.8 °F 95.8 °F 57.2 °F 27% 29.90 in 10.0 mi NNW 6.9 mph - N/A   Partly Cloudy
4:50 PM 96.8 °F 95.1 °F 55.4 °F 25% 29.86 in 10.0 mi East 11.5 mph - N/A   Partly Cloudy
5:50 PM 96.8 °F 95.1 °F 55.4 °F 25% 29.86 in 10.0 mi East 5.8 mph - N/A   Partly Cloudy
6:50 PM 93.2 °F 90.8 °F 53.6 °F 26% 29.86 in 10.0 mi ESE 6.9 mph - N/A   Partly Cloudy
7:50 PM 87.8 °F 86.5 °F 57.2 °F 35% 29.86 in 10.0 mi ESE 11.5 mph - N/A   Partly Cloudy
8:50 PM 80.6 °F 81.5 °F 60.8 °F 51% 29.86 in 10.0 mi NE 11.5 mph - N/A   Partly Cloudy
9:15 PM 80.6 °F 81.5 °F 60.8 °F 51% 29.87 in 10.0 mi East 8.1 mph - N/A   Clear
9:35 PM 78.8 °F - 60.8 °F 54% 29.87 in 10.0 mi East 6.9 mph - N/A   Clear
9:55 PM 78.8 °F - 60.8 °F 54% 29.88 in 10.0 mi East 6.9 mph - N/A   Clear
10:15 PM 77.0 °F - 60.8 °F 57% 29.88 in 10.0 mi ESE 4.6 mph - N/A   Clear
10:35 PM 73.4 °F - 60.8 °F 65% 29.88 in 10.0 mi SSE 3.5 mph - N/A   Clear
10:55 PM 73.4 °F - 60.8 °F 65% 29.89 in 10.0 mi Calm Calm - N/A   Clear
11:15 PM 71.6 °F - 60.8 °F 69% 29.89 in 10.0 mi SE 3.5 mph - N/A   Clear
11:35 PM 71.6 °F - 59.0 °F 64% 29.89 in 10.0 mi SSE 4.6 mph - N/A   Clear
11:55 PM 71.6 °F - 59.0 °F 64% 29.89 in 10.0 mi Calm Calm - N/A   Clear